星链-6236 (STARLINK-6236 )

导读

STARLINK-6236是美国太空探索技术公司(SpaceX)星链(Starlink)项目的卫星,于2023年5月4日发射升空,属于星链低轨互联网星座的组成部分,用于为全球提供高速低延迟的宽带互联网服务。星链星座通过大规模部署低轨卫星,逐步实现全球覆盖,该卫星加入后进一步扩充了星链星座的服务能力。

基本信息
目录编号:
56422
目录名称:
STARLINK-6236
国际标识:
2023-061BA
轨道中心:
EARTH
卫星名称:
星链-6236
卫星全名:
星链-6236 (STARLINK-6236 )
卫星状态:
在轨 (已飞行1219 天)
发射日期:
2023-05-04 UTC
国别 :
美国 (US)
星等 :
--
轨道信息
数据来源 国际轨道数据
星历时间: 2026-09-04T08:44:03+0800
9小时前
查看轨道信息
半长轴: 6861.194km
偏心率: 0.0001328
轨道倾角: 43.001°
近地点辐角 263.935°
升交点赤经 252.462°
平近点角 96.135°
近地点: 482.145km
远地点: 483.969km
周期: 94.267分钟
每日圈数: 15.275774
详细信息
固有亮度:
5
最大亮度:
2.5
卫星平台:
Starlink v1.5
覆盖范围:
全球
运营商:
太空探索技术公司
运营商所在国:
美国
制造商(研发单位):
太空探索技术公司
制造商所在国:
美国
使用方式:
暂无
卫星简介
星链(Starlink)计划是由太空探索技术公司(SpaceX)提出的一个巨型低轨卫星互联网星座项目,计划在2019年至2024年间在太空搭建由约1.2万颗卫星组成的“星链”网络,其中1584颗将部署在地球上空550千米处的近地轨道,并从2020年开始工作。该卫星仍在工作。
2D轨道图
3D轨道图
轨道高度分析图
轨道倾角分析图
轨道综合分析图
查看轨道综合分析图
交会数据列表
事件ID 空间交会对象 最接近时刻(TCA) 交会距离 交会风险概率(CRP) 交会风险指数(CRI) 操作
CDM_260905-022405-642205-983721
2026-09-05T
02:24:07+0000
0.247 km
中距离
5.02451E-4 高风险 0.89
CDM_260904-014605-504705-642222
2026-09-04T
01:46:08+0000
0.342 km
远距离
3.323775E-4 高风险 0.85
CDM_260905-044505-642206-651621
2026-09-05T
04:45:46+0000
0.422 km
远距离
2.072646E-4 高风险 0.81
CDM_260905-035805-642205-983721
2026-09-05T
03:58:17+0000
0.887 km
远距离
2.570615E-5 中风险 0.63
CDM_260905-004905-642205-983721
2026-09-05T
00:49:58+0000
0.959 km
远距离
1.971729E-5 中风险 0.61
CDM_260904-032205-642206-186922
OBJECT A (61869)
2026-09-04T
03:22:41+0000
1.634 km
极远距离
3.858157E-6 低风险 0.47
CDM_260905-053205-642205-983721
2026-09-05T
05:32:26+0000
1.675 km
极远距离
3.061545E-6 低风险 0.45
CDM_260905-061905-642206-651621
2026-09-05T
06:19:55+0000
1.781 km
极远距离
2.607852E-6 低风险 0.43
CDM_260905-003205-642206-538821
2026-09-05T
00:32:18+0000
2.122 km
极远距离
2.326317E-6 低风险 0.42
CDM_260904-231505-642205-983721
2026-09-04T
23:15:48+0000
1.914 km
极远距离
2.115953E-6 低风险 0.42